[[{"header":{"parameterUnit":"m.s-1","parameterCategory":1,"la1":30.2991,"la2":30.254,"lo1":-89.0895,"lo2":-89.0444,"dy":0.0017,"dx":0.0017,"nx":28,"ny":28,"refTime":"2024-03-24T09:00:00:Z","depth":0,"parameterNumber":2,"parameterNumberName":"U-component_of_WINDS"},"data":[0,0,0,0,0,0,0,0,0,0,0,0,0,0,0,0,0,0,0,0,0,0,0,0,0,0,0,0,0,0,0,0,0,0,0,0,0,0,0,0,0,0,0,0,0,0,0,0,0,0,0,0,0,0,0,0,0,0,-4.7409,-4.7409,0,-4.7397,-4.7397,-4.7397,-4.7322,-4.732,-4.7318,-4.7316,-4.7305,-4.7306,-4.7308,0,0,0,0,0,0,0,0,0,0,0,0,0,-4.7369,-4.737,-4.7409,-4.7409,-4.7409,-4.7397,-4.7397,-4.7397,-4.7322,-4.732,-4.7318,-4.7316,-4.7305,-4.7306,-4.7308,0,0,0,0,0,0,0,0,0,0,0,0,0,-4.7375,-4.737,-4.7409,-4.737,-4.7366,-4.7397,-4.7397,-4.7397,-4.7323,-4.732,-4.7317,-4.7315,-4.7304,-4.7306,-4.7308,-4.7376,0,0,-4.7315,-4.7315,0,0,0,0,0,0,0,0,-4.7374,-4.7376,-4.7376,-4.7373,-4.7369,-4.7358,-4.7379,-4.739,-4.7323,-4.7339,-4.7316,-4.7313,-4.7325,-4.7325,-4.7329,-4.7375,-4.7375,-4.7315,-4.7316,-4.7317,-4.7317,0,0,0,0,0,0,0,-4.7374,-4.7376,-4.7404,-4.7376,-4.7372,-4.7354,-4.7352,-4.738,-4.7348,-4.7338,-4.7332,-4.7332,-4.7322,-4.7327,-4.7328,-4.7375,-4.7315,-4.7316,-4.7318,-4.7319,-4.7477,-4.748,0,0,0,0,0,0,-4.7379,-4.7376,-4.7405,-4.7404,-4.7365,-4.7357,-4.7354,-4.7364,-4.7347,-4.7342,-4.7334,-4.7328,-4.7325,-4.7326,-4.7327,-4.7405,-4.7317,-4.7319,-4.732,-4.7474,-4.7478,-4.7481,0,0,0,0,0,0,-4.7378,-4.7382,-4.7405,-4.7389,-4.739,-4.736,-4.7372,-4.7366,-4.737,-4.7344,-4.7338,-4.7345,-4.7323,-4.7324,-4.7364,-4.7404,-4.732,-4.7322,-4.7471,-4.7475,-4.7479,-4.7561,0,0,0,0,0,0,-4.7378,-4.7382,-4.7407,-4.739,-4.7391,-4.7442,-4.7375,-4.7367,-4.7374,-4.7366,-4.7353,-4.7348,-4.7321,-4.7362,-4.7367,-4.7405,-4.7323,-4.7467,-4.7473,-4.7478,-4.7555,-4.7568,-4.7579,0,0,0,0,0,-4.7376,-4.7431,-4.7409,-4.7412,-4.7422,-4.7444,-4.7445,-4.7412,-4.7377,-4.7402,-4.7386,-4.7348,-4.74,-4.7366,-4.7371,-4.7411,-4.7464,-4.7471,-4.7477,-4.755,-4.7566,-4.7579,0,0,0,0,0,0,-4.7452,-4.7427,-4.7403,-4.7453,-4.7451,-4.7431,-4.7461,-4.743,-4.7439,-4.7431,-4.7391,-4.7389,-4.7435,-4.7427,-4.7391,-4.7476,-4.7425,-4.7433,-4.7479,-4.7494,-4.7506,-4.7505,-4.7325,0,0,0,0,0,-4.7475,-4.7495,-4.7473,-4.7519,-4.752,-4.7491,-4.75,-4.7475,-4.7472,-4.7471,-4.7457,-4.7456,-4.7472,-4.7483,-4.7496,-4.7555,-4.7551,-4.7585,-4.7597,-4.7607,-4.7614,-4.7644,-4.7659,-4.7503,-4.7502,-4.7502,0,0,-4.7522,-4.7511,-4.7526,-4.7534,-4.753,-4.7552,-4.7491,-4.7517,-4.7533,-4.7475,-4.7511,-4.7502,-4.7498,-4.7548,-4.7569,-4.7543,-4.7657,-4.7616,-4.7624,-4.7625,-4.7653,-4.7668,-4.7681,-4.7507,-4.7506,-4.7506,0,0,-4.7618,-4.7612,-4.765,-4.7648,-4.7643,-4.7624,-4.7633,-4.7619,-4.761,-4.7647,-4.7604,-4.7624,-4.7651,-4.765,-4.7653,-4.7753,-4.7718,-4.7759,-4.7821,-4.7852,-4.7864,-4.7875,-4.7909,-4.7922,-4.7766,-4.7766,-4.7766,0,-4.7676,-4.7707,-4.7674,-4.7702,-4.7708,-4.7658,-4.7696,-4.7696,-4.7696,-4.77,-4.7672,-4.7707,-4.77,-4.7749,-4.7774,-4.7779,-4.7788,-4.7758,-4.7865,-4.7875,-4.7885,-4.7917,-4.7931,-4.7771,-4.777,-4.777,-4.7769,0,-4.778,-4.7802,-4.7834,-4.7835,-4.7844,-4.7878,-4.785,-4.7864,-4.784,-4.7824,-4.7863,-4.7854,-4.7865,-4.7876,-4.7852,-4.7922,-4.7906,-4.7872,-4.7819,-4.7905,-4.7935,-4.7947,-4.7778,-4.7776,-4.7775,-4.7773,0,0,-4.7919,-4.7904,-4.7915,-4.7916,-4.7908,-4.7925,-4.7958,-4.7968,-4.7981,-4.7984,-4.8009,-4.8036,-4.8005,-4.8009,-4.7985,-4.8013,-4.8092,-4.7975,-4.7975,-4.7996,-4.8167,-4.8191,-4.8206,-4.807,-4.8072,-4.8074,-4.8167,0,-4.801,-4.8063,-4.8036,-4.8093,-4.8114,-4.8068,-4.8097,-4.8096,-4.8083,-4.81,-4.8086,-4.8105,-4.8063,-4.8065,-4.8091,-4.8077,-4.8125,-4.807,-4.8093,-4.8094,-4.8093,-4.8222,-4.8247,-4.8335,-4.8179,-4.8181,-4.8182,0,-4.8122,-4.813,-4.819,-4.8179,-4.8187,-4.8213,-4.8221,-4.8238,-4.8236,-4.8225,-4.8231,-4.8202,-4.8234,-4.8185,-4.8229,-4.8192,-4.82,-4.8196,-4.8198,-4.8197,-4.8142,-4.8222,-4.8362,-4.8374,-4.82,-4.8199,-4.8198,0,-4.8217,-4.8242,-4.8281,-4.8283,-4.8273,-4.8292,-4.8289,-4.8285,-4.8293,-4.8302,-4.8307,-4.8319,-4.8325,-4.8335,-4.8311,-4.8277,-4.8358,-4.8306,-4.8349,-4.835,-4.8365,-4.8364,-4.8506,-4.8375,-4.8375,-4.8375,-4.8375,0,-4.832,-4.8357,-4.8324,-4.8347,-4.8389,-4.8358,-4.84,-4.8392,-4.839,-4.8411,-4.8374,-4.8396,-4.8363,-4.8381,-4.8363,-4.8401,-4.8405,-4.8397,-4.8391,-4.8399,-4.84,-4.8402,-4.8394,-4.8378,-4.8378,-4.8377,-4.8376,0,-4.843,-4.8409,-4.8449,-4.8437,-4.8434,-4.8466,-4.8455,-4.8477,-4.8464,-4.8492,-4.8497,-4.8475,-4.8495,-4.8473,-4.8491,-4.8478,-4.8531,-4.8517,-4.8531,-4.8526,-4.8569,-4.8565,-4.8716,-4.8734,-4.8593,-4.8595,-4.8596,0,-4.8496,-4.8524,-4.8516,-4.8528,-4.8527,-4.8547,-4.8556,-4.8528,-4.8539,-4.8541,-4.8563,-4.858,-4.8591,-4.8626,-4.8612,-4.8626,-4.8611,-4.8664,-4.8613,-4.862,-4.861,-4.8608,-4.861,-4.8673,-4.8675,-4.8676,-4.8677,0,-4.8615,-4.8604,-4.8618,-4.863,-4.8642,-4.865,-4.8655,-4.8668,-4.8638,-4.8653,-4.8673,-4.8683,-4.8702,-4.872,-4.873,-4.8727,-4.8697,-4.8694,-4.8704,-4.8711,-4.8717,-4.8713,-4.8556,-4.869,-4.8688,-4.8687,-4.8687,-4.8686,-4.8704,-4.8727,-4.8725,-4.8743,-4.8744,-4.875,-4.877,-4.876,-4.8777,-4.879,-4.8773,-4.8798,-4.8798,-4.8809,-4.881,-4.883,-4.8807,-4.8823,-4.8826,-4.883,-4.8836,-4.8717,-4.8832,-4.8831,-4.8831,-4.8831,-4.883,0,-4.8819,-4.8817,-4.8834,-4.8842,-4.8857,-4.8829,-4.8834,-4.8848,-4.8871,-4.8873,-4.8886,-4.891,-4.8928,-4.8916,-4.8931,-4.8949,-4.8936,-4.8954,-4.8951,-4.8951,-4.8855,-4.8844,-4.8964,-4.8964,-4.8964,-4.8964,-4.8964,-4.8964,-4.8881,-4.8919,-4.8908,-4.8947,-4.8944,-4.8968,-4.8973,-4.8979,-4.8981,-4.9009,-4.9024,-4.9017,-4.9014,-4.9029,-4.9044,-4.904,-4.9046,-4.9069,-4.906,-4.8971,-4.8957,-4.8945,-4.8934,-4.9071,-4.9071,-4.9154,-4.9155,-4.9155]},{"header":{"parameterUnit":"m.s-1","parameterCategory":1,"la1":30.2991,"la2":30.254,"lo1":-89.0895,"lo2":-89.0444,"dy":0.0017,"dx":0.0017,"nx":28,"ny":28,"refTime":"2024-03-24T09:00:00:Z","depth":0,"parameterNumber":3,"parameterNumberName":"V-component_of_WINDS"},"data":[0,0,0,0,0,0,0,0,0,0,0,0,0,0,0,0,0,0,0,0,0,0,0,0,0,0,0,0,0,0,0,0,0,0,0,0,0,0,0,0,0,0,0,0,0,0,0,0,0,0,0,0,0,0,0,0,0,0,3.6454,3.6454,0,3.6524,3.6524,3.6525,3.6576,3.6576,3.6577,3.6577,3.6645,3.6647,3.6648,0,0,0,0,0,0,0,0,0,0,0,0,0,3.6362,3.6363,3.6454,3.6455,3.6455,3.6524,3.6525,3.6525,3.6576,3.6576,3.6577,3.6577,3.6645,3.6646,3.6648,0,0,0,0,0,0,0,0,0,0,0,0,0,3.6413,3.6364,3.6454,3.6489,3.6493,3.6523,3.6525,3.6526,3.6576,3.6576,3.6577,3.6578,3.6644,3.6646,3.6648,3.6648,0,0,3.6655,3.6656,0,0,0,0,0,0,0,0,3.641,3.6417,3.6483,3.6486,3.6491,3.6542,3.6517,3.6567,3.6576,3.6544,3.6577,3.6578,3.661,3.6615,3.6627,3.6652,3.6654,3.6655,3.6656,3.6657,3.6658,0,0,0,0,0,0,0,3.6407,3.6414,3.6481,3.6484,3.6489,3.6501,3.6509,3.6527,3.6572,3.6547,3.6551,3.6558,3.6612,3.6624,3.6629,3.6655,3.6655,3.6657,3.6658,3.6659,3.6686,3.6685,0,0,0,0,0,0,3.6398,3.6411,3.6479,3.6483,3.6452,3.6502,3.6511,3.6525,3.6572,3.658,3.6558,3.6561,3.662,3.6626,3.6631,3.6636,3.6657,3.6659,3.666,3.6687,3.6686,3.6685,0,0,0,0,0,0,3.6396,3.6404,3.6476,3.6448,3.6458,3.6503,3.6518,3.6526,3.6538,3.6581,3.6589,3.6562,3.6621,3.6628,3.6644,3.6639,3.666,3.6662,3.6687,3.6686,3.6686,3.6644,0,0,0,0,0,0,3.6393,3.6403,3.6403,3.6448,3.646,3.6489,3.6518,3.6527,3.6542,3.6546,3.6587,3.6594,3.6622,3.6641,3.6647,3.6642,3.6664,3.6688,3.6687,3.6686,3.6646,3.6642,3.6639,0,0,0,0,0,3.639,3.6388,3.6403,3.6411,3.6462,3.6488,3.6495,3.6529,3.6541,3.6542,3.657,3.6593,3.6638,3.6642,3.6649,3.6645,3.6688,3.6687,3.6686,3.6648,3.6643,3.6639,0,0,0,0,0,0,3.634,3.6394,3.6412,3.6425,3.6452,3.6497,3.6499,3.6522,3.6545,3.6548,3.6587,3.6596,3.6608,3.6628,3.6631,3.6649,3.6666,3.6666,3.6635,3.6631,3.6627,3.6622,3.6665,0,0,0,0,0,3.6331,3.6349,3.6395,3.6401,3.6414,3.6454,3.6467,3.6491,3.652,3.6531,3.656,3.6587,3.6608,3.662,3.6641,3.6649,3.666,3.665,3.6646,3.6643,3.6643,3.665,3.6647,3.6681,3.6681,3.6681,0,0,3.6311,3.6343,3.6352,3.6392,3.6416,3.6434,3.6464,3.648,3.6494,3.6534,3.6552,3.6574,3.6606,3.6619,3.6626,3.6636,3.6635,3.6641,3.6638,3.664,3.6648,3.6645,3.6642,3.668,3.6681,3.6681,0,0,3.6285,3.6311,3.632,3.6344,3.6381,3.6408,3.641,3.6452,3.6469,3.6488,3.6519,3.6535,3.6569,3.6591,3.6607,3.6591,3.6613,3.6597,3.6577,3.6583,3.6581,3.6579,3.6574,3.6572,3.6596,3.6596,3.6596,0,3.6256,3.6285,3.6322,3.6338,3.6355,3.6394,3.6404,3.6424,3.6465,3.6476,3.6487,3.6532,3.6556,3.6576,3.6572,3.6583,3.6587,3.6593,3.6578,3.6577,3.6575,3.6571,3.6569,3.6594,3.6594,3.6595,3.6595,0,3.6248,3.6267,3.6271,3.6311,3.6329,3.6341,3.638,3.6393,3.6415,3.6441,3.646,3.6491,3.652,3.6526,3.6547,3.6549,3.6554,3.6571,3.659,3.6569,3.6566,3.6565,3.6591,3.6592,3.6592,3.6593,0,0,3.6192,3.6255,3.6255,3.6275,3.6319,3.6334,3.6348,3.6378,3.639,3.6416,3.643,3.6459,3.6475,3.6493,3.6517,3.6523,3.6511,3.654,3.6541,3.6534,3.6516,3.6504,3.6501,3.6525,3.6525,3.6525,3.6513,0,3.6174,3.6204,3.6238,3.6256,3.6275,3.6312,3.6325,3.6353,3.6378,3.6397,3.6423,3.6444,3.6463,3.6475,3.6482,3.651,3.6507,3.6512,3.6538,3.6539,3.653,3.65,3.6487,3.6474,3.6512,3.6512,3.6512,0,3.6157,3.6184,3.6204,3.6248,3.6257,3.6268,3.6299,3.6317,3.6349,3.6367,3.6388,3.6414,3.6431,3.6448,3.6472,3.6474,3.6487,3.6503,3.6503,3.6507,3.6525,3.6504,3.6471,3.6469,3.6511,3.6511,3.6511,0,3.6116,3.6157,3.6175,3.619,3.6241,3.6249,3.627,3.6303,3.632,3.6346,3.6358,3.6385,3.64,3.6421,3.6454,3.6463,3.6475,3.6494,3.6491,3.649,3.6492,3.6492,3.6461,3.6498,3.6498,3.6499,3.6499,0,3.6092,3.6103,3.6158,3.6169,3.6182,3.6222,3.6234,3.6258,3.6288,3.6304,3.6338,3.6352,3.6395,3.6414,3.644,3.6457,3.6463,3.6478,3.6485,3.6475,3.6474,3.6485,3.6487,3.6498,3.6498,3.6498,3.6498,0,3.6049,3.6086,3.6108,3.6155,3.6168,3.6176,3.6216,3.6228,3.6255,3.6275,3.6282,3.6324,3.6349,3.6384,3.6418,3.6436,3.645,3.646,3.6439,3.6443,3.6439,3.6439,3.6415,3.6414,3.6451,3.645,3.645,0,3.6032,3.6042,3.6091,3.6105,3.6126,3.6148,3.6165,3.6204,3.6221,3.626,3.6267,3.6295,3.6319,3.6357,3.639,3.6417,3.6429,3.6419,3.6433,3.6424,3.643,3.643,3.6431,3.6415,3.6415,3.6414,3.6414,0,3.5999,3.6017,3.6042,3.6073,3.6094,3.612,3.6147,3.6156,3.6201,3.6218,3.6245,3.6264,3.6301,3.6328,3.636,3.6381,3.6405,3.6409,3.641,3.6401,3.6389,3.6397,3.6431,3.641,3.641,3.641,3.6411,3.6411,3.5969,3.5981,3.6017,3.6044,3.6069,3.6095,3.6109,3.6139,3.6162,3.6196,3.6217,3.6243,3.6276,3.6322,3.6342,3.6363,3.6373,3.6373,3.6374,3.6374,3.6371,3.6385,3.6369,3.6369,3.6369,3.6369,3.6369,0,3.5939,3.5965,3.5989,3.6028,3.6049,3.6071,3.6103,3.6119,3.6142,3.6172,3.6195,3.6226,3.6253,3.6289,3.6319,3.6328,3.634,3.6335,3.6335,3.634,3.636,3.6357,3.6325,3.6325,3.6325,3.6325,3.6325,3.6325,3.5926,3.5947,3.5969,3.6003,3.6029,3.6055,3.6072,3.6096,3.612,3.6154,3.6177,3.6201,3.6233,3.6265,3.6291,3.6301,3.631,3.6302,3.6315,3.6334,3.6338,3.6342,3.6339,3.6303,3.6303,3.6293,3.6293,3.6293]}]]